Dewpoint
26 21 20 21 23 21 20 18 17 16 16 17 18 15 14 15 16 17 16 18 20 22 30 40 44 46 48 49 49 50 51 53 53 52 49 45 55 58 61 62 66 67 66 66
22 20 21 21 20 19 18 17 17 15 14 15 14 14 15 16 17 18 18 19 21 27 36 40 42 44 46 46 48 48 48 50 51 51 52 52 51 53 56 61 63 65 67 68
22 17 17 19 19 15 15 16 16 14 15 16 17 14 12 12 13 14 17 22 33 36 37 39 40 42 44 44 45 45 46 47 49 51 50 52 53 53 56 57 58 62 66 68
26 25 21 21 21 18 17 17 17 16 15 12 10 6 10 12 13 16 25 34 37 37 38 38 39 40 41 42 45 45 45 46 46 48 49 51 51 52 49 56 56 60 64 66
27 27 25 23 23 23 19 19 16 15 15 14 11 8 11 12 11 21 31 37 38 39 39 39 39 38 38 41 42 44 44 44 45 46 48 48 50 51 53 55 59 61 62 65
24 25 25 18 17 17 18 16 16 15 13 12 12 10 9 7 10 21 37 37 38 38 38 38 37 37 37 39 41 43 43 42 43 44 46 46 47 49 51 54 56 60 60 64
22 22 24 20 21 20 17 18 15 12 13 12 11 8 11 20 32 33 37 36 37 37 37 37 36 35 37 38 39 40 40 40 41 42 43 43 44 47 49 52 56 58 61 64
25 26 21 21 19 19 18 16 16 18 16 15 12 10 18 35 37 36 35 35 33 34 35 34 34 35 35 36 37 38 38 38 39 40 40 40 41 44 46 50 53 57 60 62
24 21 25 20 18 17 16 19 18 20 22 17 17 18 33 36 35 36 34 32 32 32 33 34 34 34 35 35 37 38 37 37 37 38 39 39 41 43 45 48 53 56 61 62
26 27 23 20 18 17 15 18 22 20 13 9 7 9 11 35 35 34 32 31 31 31 31 33 33 34 34 35 35 37 37 36 36 37 37 38 40 43 45 47 50 57 61 62
26 24 22 21 18 15 16 15 15 16 18 16 13 13 34 37 35 33 30 29 30 30 30 32 32 32 33 33 34 34 34 34 35 35 35 37 40 43 47 53 55 60 62 62
27 26 23 20 17 18 16 16 16 20 14 12 10 5 34 34 31 30 29 28 28 30 31 31 31 32 31 31 31 31 32 33 33 34 35 37 40 42 46 50 59 60 61 62
28 23 18 14 14 17 14 15 15 17 17 15 18 15 32 30 29 31 26 27 28 30 30 30 30 30 30 30 30 30 30 31 32 33 34 35 38 39 41 44 49 51 60 60
28 20 15 8 7 15 16 11 13 18 23 15 10 9 20 24 21 19 25 29 29 30 29 29 29 30 30 30 30 29 29 30 30 31 32 33 35 37 38 41 43 45 48 58
23 19 15 12 9 7 10 11 13 12 16 18 15 18 17 16 18 25 29 28 27 28 28 28 28 29 29 29 29 30 30 30 30 30 31 31 34 35 36 37 37 38 41 42
25 22 20 15 11 9 10 8 6 7 11 11 8 14 15 17 26 28 29 28 28 27 27 27 28 30 30 30 29 30 31 31 31 30 30 31 32 33 34 34 34 34 35 35
24 21 17 15 7 8 8 9 7 6 9 10 19 18 26 28 33 28 28 27 26 27 27 28 29 30 30 30 31 31 32 32 31 30 31 30 31 31 31 33 32 32 32 32
21 20 18 13 14 6 17 22 23 20 19 20 25 28 30 32 30 28 28 27 27 28 28 29 29 30 31 32 31 32 32 32 32 31 31 31 31 30 30 29 29 30 30 29
19 17 18 14 11 10 19 30 28 27 23 27 29 28 29 28 27 26 27 28 29 30 29 29 30 30 31 31 32 31 30 31 31 31 32 32 32 31 30 29 29 29 28 28
19 19 19 17 13 11 28 26 26 28 22 27 27 28 28 30 29 26 29 29 29 30 30 29 29 30 29 30 30 30 29 29 30 31 31 32 33 32 32 32 31 31 30 28
22 21 18 17 18 25 25 30 30 23 24 28 28 32 30 29 27 28 30 29 30 30 31 31 29 28 29 30 29 29 29 29 30 31 31 31 32 32 32 32 33 32 32 31
21 20 23 23 24 20 28 27 25 29 29 28 32 33 28 27 28 28 28 28 29 29 28 24 23 27 29 29 28 25 27 30 31 30 29 29 30 31 31 32 32 32 32 31
27 30 29 26 26 30 28 30 32 32 29 29 28 30 28 27 27 28 27 27 28 26 20 17 17 19 21 22 22 26 28 29 30 30 29 29 28 29 30 29 29 28 28 27
29 29 30 27 28 28 29 29 30 30 29 29 30 29 28 26 27 27 27 27 25 19 17 15 16 17 19 19 19 21 21 24 26 26 28 29 28 26 25 26 26 25 25 27
28 28 26 26 27 27 26 28 29 29 29 28 29 29 28 27 26 27 26 25 20 18 17 16 16 16 18 18 19 19 20 20 19 19 20 22 23 23 23 23 22 23 24 23
28 28 28 28 29 28 28 29 30 28 28 27 26 27 28 27 26 26 25 23 21 19 17 16 16 15 17 19 20 21 22 21 23 22 22 23 22 23 22 23 24 21 20 20
Lifted_Index
7 6 6 5 5 5 5 5 5 5 4 5 6 6 6 6 6 7 7 6 6 6 6 5 5 5 5 4 4 4 4 4 3 2 2 1 -1 -3 -5 -6 -7 -8 -8 -8
6 6 5 5 4 4 4 4 4 4 4 4 5 6 6 6 6 6 6 6 6 5 5 5 5 5 5 5 5 5 5 4 3 3 2 1 -0 -2 -3 -5 -6 -7 -8 -8
3 4 4 3 3 3 3 3 3 3 3 3 4 4 4 4 5 5 5 4 4 4 5 5 6 6 6 6 6 6 6 5 4 4 3 2 1 -0 -2 -4 -5 -6 -7 -8
1 1 2 2 2 2 2 2 3 3 3 3 3 2 2 3 3 4 4 3 3 4 4 5 6 6 6 7 7 7 7 6 6 5 4 3 2 1 -0 -2 -4 -5 -6 -7
0 0 1 1 1 2 2 2 3 3 3 3 2 2 2 1 2 2 2 2 3 3 4 5 5 6 6 6 7 7 7 7 6 6 5 5 4 3 1 -1 -3 -4 -5 -6
1 1 1 1 2 2 2 2 3 3 3 2 2 1 1 1 0 0 1 2 2 3 4 5 5 5 6 6 6 7 7 6 6 6 5 5 5 4 3 1 -1 -4 -5 -6
1 1 1 2 2 3 3 2 2 1 1 1 1 1 0 -0 -1 -0 1 2 2 3 4 5 5 5 5 6 6 6 6 6 6 5 5 5 5 4 4 2 0 -3 -5 -5
1 1 2 2 3 2 2 2 1 0 0 0 0 0 -1 -1 -1 -0 1 2 3 4 5 6 6 6 6 6 6 7 6 6 6 5 5 5 4 4 3 3 1 -1 -4 -5
1 1 2 3 3 2 2 1 0 0 -0 -0 -0 -0 -1 -1 -0 1 1 2 4 5 6 6 7 7 7 7 7 7 7 7 6 6 5 4 3 3 2 2 1 -1 -3 -5
1 1 1 2 3 2 2 1 1 1 0 -0 -0 -0 -1 -1 0 1 2 3 5 6 7 7 8 8 8 8 8 8 7 7 6 6 5 4 2 1 0 -0 -1 -2 -4 -5
1 1 1 2 2 2 2 2 2 1 1 0 0 -0 -1 -1 0 2 3 5 6 7 8 8 9 9 8 8 8 8 8 7 6 6 5 4 2 1 -0 -1 -2 -3 -5 -6
2 1 1 1 2 2 2 2 2 2 2 1 1 0 -0 0 1 2 4 6 7 8 8 9 9 8 8 8 9 9 8 7 6 6 6 4 2 1 -0 -1 -2 -3 -5 -5
2 2 1 2 2 3 3 3 3 2 2 2 1 1 1 1 2 4 5 6 7 8 9 9 8 8 8 8 9 9 9 8 7 7 6 5 2 1 0 -0 -0 -1 -3 -4
3 2 2 2 2 3 3 3 3 2 3 3 2 2 2 2 3 5 6 7 7 8 9 8 7 7 8 8 9 9 9 9 9 8 7 5 3 2 1 0 0 -0 -2 -2
3 3 3 2 3 3 3 3 3 3 3 3 4 3 3 4 4 5 6 7 8 8 7 7 6 7 7 8 9 10 10 10 10 9 8 6 5 4 3 2 1 0 -1 -1
3 3 3 3 3 4 4 4 4 4 4 4 4 4 4 4 5 5 6 7 7 7 6 6 6 6 7 8 9 10 10 11 10 10 9 8 7 5 4 3 2 1 0 -0
4 4 4 4 4 4 4 5 5 5 4 4 4 4 4 4 4 4 5 5 6 5 5 6 7 7 8 9 10 11 11 12 11 10 10 10 8 7 6 5 5 4 3 2
4 4 4 4 4 4 4 5 5 4 4 4 4 3 3 3 3 3 4 5 5 6 6 7 8 9 10 10 11 11 12 12 11 11 11 11 10 9 9 8 8 7 6 5
5 5 5 5 4 4 4 4 4 4 4 3 3 3 3 3 3 3 5 6 6 7 8 9 10 10 11 11 11 12 12 12 12 11 12 12 12 11 11 10 10 10 10 9
5 5 5 4 3 3 3 4 4 3 3 3 4 4 4 4 3 4 6 7 8 9 9 10 11 11 11 12 12 12 12 12 12 12 13 13 12 12 12 12 12 12 12 12
4 4 3 3 2 2 2 3 3 3 3 4 5 5 5 5 5 6 7 8 9 10 10 11 11 12 13 13 13 13 13 13 14 14 14 13 13 13 13 13 13 13 13 13
2 2 2 2 2 2 3 4 4 4 5 6 6 7 6 6 6 7 8 9 10 10 11 12 13 14 15 16 15 15 15 16 16 16 16 15 15 15 15 14 14 14 13 13
2 2 2 2 2 3 4 5 6 6 7 7 8 8 8 7 8 8 9 9 10 11 12 14 14 15 16 17 17 17 18 18 18 18 18 18 18 18 17 17 16 16 15 14
3 3 3 2 3 4 5 6 7 8 8 9 9 9 9 8 8 9 9 10 10 12 13 15 15 15 16 17 18 18 19 19 19 18 18 19 19 19 19 19 18 18 18 17
3 3 3 3 3 4 5 7 7 8 9 9 10 10 10 9 9 9 10 10 11 12 14 14 15 15 16 17 18 18 19 19 18 18 18 18 18 18 19 19 19 19 20 20
3 3 3 3 4 4 5 7 8 8 9 9 10 10 10 10 10 10 10 10 11 13 14 14 15 15 16 17 17 18 19 19 18 18 18 18 18 18 18 18 19 20 21 21